Wind_Speed
55 59 65 63 67 70 72 76 79 83 85 82 72 62 51 47 44 42 45 48 50 51 31 15 14 11 22 25 24 31 29 24 18 9 5 8 14 18 14 12 13 16 27 25 27 31 22 21 27 27 25 30 31 28
57 60 60 63 67 70 72 75 79 83 85 84 74 66 55 45 43 38 40 44 45 45 40 19 18 20 20 25 26 30 27 24 21 14 6 9 13 21 18 15 18 15 18 29 30 32 31 34 28 26 27 29 30 34
54 57 60 63 66 69 72 75 78 82 85 82 74 68 61 50 40 37 36 40 42 36 40 32 23 26 23 25 23 21 22 24 21 20 11 8 14 20 15 19 24 21 16 21 28 33 31 34 31 35 35 35 34 37
52 55 58 62 65 68 72 74 76 80 81 78 72 68 63 54 44 34 31 33 39 37 31 29 27 23 22 20 17 16 19 21 20 21 24 12 10 20 24 29 28 28 28 25 25 26 25 31 36 35 38 33 32 34
53 55 58 62 66 68 71 75 76 78 78 73 70 67 64 55 48 35 29 27 31 34 32 24 22 20 21 19 18 17 16 18 19 19 18 17 14 9 22 35 35 35 38 36 34 32 27 32 31 31 26 47 38 34
54 56 59 62 66 68 71 74 75 77 77 71 67 67 65 60 47 35 26 24 25 29 32 28 24 24 22 21 23 21 21 23 25 25 21 16 13 12 9 20 30 35 35 40 37 42 43 42 39 35 27 36 39 42
55 57 60 62 65 68 70 73 75 76 75 70 66 66 64 60 48 35 28 24 22 24 28 29 27 22 20 19 21 25 25 25 28 24 18 11 9 15 14 12 16 27 35 41 42 39 36 44 46 44 32 32 40 48
56 57 59 63 65 67 70 72 73 73 72 67 63 64 61 57 48 32 26 21 21 23 24 22 21 16 17 20 22 25 27 28 24 18 15 12 10 12 17 16 14 16 20 28 41 46 41 37 41 50 53 44 32 33
59 60 61 63 65 66 69 72 72 72 71 65 62 60 57 55 49 37 26 21 21 23 24 25 24 23 22 24 22 20 21 21 19 16 18 19 20 20 20 22 25 24 23 25 31 42 54 47 42 44 53 60 42 39
61 61 61 63 64 66 69 70 70 70 68 61 59 55 53 51 47 37 29 23 22 22 21 24 23 24 22 23 25 24 17 17 15 14 18 18 20 23 25 27 28 29 31 32 32 35 45 51 51 47 48 52 54 46
60 61 60 62 65 66 69 69 69 68 63 58 55 49 49 48 43 36 29 24 23 23 22 23 23 24 24 24 22 22 21 16 15 14 17 20 23 25 25 23 21 19 20 25 29 32 37 38 41 43 42 41 51 56
60 59 60 62 64 66 69 69 70 67 60 56 52 48 46 45 42 40 32 27 24 23 24 25 25 25 24 23 22 21 20 18 17 18 17 18 17 15 14 14 17 20 23 21 16 18 21 29 29 30 34 32 34 52
59 59 59 63 64 66 68 68 68 63 56 52 48 45 45 44 43 40 38 27 23 25 24 23 24 24 25 25 23 22 21 16 14 14 13 11 8 8 10 12 15 17 20 24 24 19 13 16 22 23 22 22 26 28
56 58 59 62 63 65 67 66 64 57 52 50 46 45 44 43 41 40 39 37 32 27 26 25 25 25 25 25 25 20 17 14 13 12 9 8 7 8 8 10 12 14 15 17 18 18 17 13 10 13 20 25 26 27
55 56 59 62 63 64 65 64 60 55 51 48 45 44 44 42 41 39 39 38 36 33 31 30 28 26 26 25 23 21 19 19 15 13 12 10 9 10 10 11 13 14 14 14 14 13 12 10 7 3 7 14 19 24
54 55 58 61 61 63 62 59 56 52 49 45 43 44 43 42 41 39 40 40 40 39 36 34 32 31 28 26 24 22 21 21 20 18 18 17 16 15 14 13 14 14 14 14 13 12 11 10 6 3 3 5 8 9
56 57 58 59 60 61 59 56 53 49 47 44 43 44 43 42 42 41 40 41 41 40 38 38 37 34 32 31 29 28 26 25 25 25 25 24 23 23 22 21 19 19 19 19 19 19 17 14 11 9 7 5 4 7
53 57 57 57 59 58 56 52 49 47 45 44 45 45 45 45 44 43 43 43 43 42 41 39 38 35 34 34 32 32 32 32 31 31 31 31 31 30 29 29 29 27 25 24 23 22 21 21 19 18 15 11 9 9
55 55 55 55 56 56 55 50 47 45 44 46 47 46 46 47 46 46 46 46 44 43 44 42 38 35 33 32 32 32 33 35 36 36 35 35 36 36 37 36 35 34 33 31 30 28 25 23 21 21 19 18 17 16
53 53 53 54 55 55 51 48 45 44 45 48 49 48 49 49 51 50 50 48 46 46 42 39 36 34 32 31 31 32 33 34 34 35 35 35 35 34 34 34 34 34 33 32 32 31 28 26 24 23 22 22 21 21
49 50 51 52 52 50 49 47 44 45 49 49 51 51 52 54 54 54 52 51 48 45 42 39 35 34 32 30 29 29 30 30 31 31 32 33 33 33 32 32 31 31 31 30 29 28 29 29 28 28 28 27 27 26
47 48 50 50 49 47 45 44 45 49 51 52 53 54 55 56 56 54 53 49 46 43 39 36 34 33 32 30 29 29 28 28 29 29 30 30 31 31 31 32 32 33 34 35 35 34 34 33 34 33 32 31 30 29
48 49 47 48 45 44 44 44 48 51 53 54 56 58 58 59 56 55 50 47 44 40 37 34 33 31 31 30 30 29 29 29 29 29 28 28 29 30 31 32 32 32 31 30 30 29 28 28 29 29 30 30 29 29
47 47 47 46 43 42 44 47 50 53 55 57 60 62 62 60 57 52 48 45 41 37 35 33 32 31 31 30 30 31 30 30 29 28 28 28 28 27 27 26 27 28 30 32 33 33 33 32 31 30 30 31 31 31
45 46 45 42 40 42 47 50 52 55 58 61 64 64 61 59 53 50 45 42 38 36 34 33 31 31 31 33 33 32 31 31 31 31 29 29 28 28 26 26 25 24 24 24 24 25 27 29 30 32 33 33 34 35
43 43 40 40 42 46 49 52 55 58 63 66 66 64 60 55 51 46 43 40 38 36 35 34 35 35 34 35 35 35 36 36 36 36 35 32 30 30 30 29 27 26 25 25 24 22 21 20 20 19 19 19 20 19
39 35 35 39 44 47 51 53 58 62 65 66 64 61 57 53 48 45 42 39 38 37 38 38 37 36 36 36 37 37 35 35 34 35 37 38 37 34 32 31 30 30 30 29 26 24 24 23 22 21 20 20 20 19
31 33 37 42 45 49 52 57 61 65 67 66 63 56 52 49 45 43 41 40 40 39 39 39 40 40 41 42 42 41 41 39 38 36 34 33 34 36 37 36 35 34 32 31 31 30 29 28 26 25 24 23 24 24
30 35 39 43 47 51 56 60 64 66 66 62 57 52 49 46 44 43 42 41 41 40 40 42 44 45 46 48 47 43 40 37 34 33 33 33 33 32 32 34 36 37 36 35 34 32 32 32 31 30 30 28 27 27
33 36 40 45 50 54 58 62 65 65 62 57 54 51 47 44 43 42 41 41 42 42 43 45 44 43 42 40 40 40 37 35 32 29 28 29 30 31 30 31 31 31 33 35 37 37 36 34 34 32 32 32 32 30
33 38 43 47 51 56 60 63 63 60 57 54 52 48 45 43 41 40 40 41 43 44 44 45 45 42 38 36 34 32 32 32 31 29 27 26 26 27 27 28 28 28 29 30 32 34 37 38 37 36 36 35 34 34
35 40 44 49 53 57 59 59 57 56 55 53 50 47 45 43 41 41 41 41 42 42 42 41 39 36 34 33 30 28 26 25 25 25 25 25 24 24 24 25 26 26 27 28 29 31 32 33 35 37 38 38 37 36
37 41 46 49 52 55 56 57 56 54 53 50 48 46 43 42 41 40 40 39 38 38 37 37 36 34 32 30 29 27 26 25 24 23 22 22 22 22 22 22 23 24 26 27 27 28 29 29 30 31 32 34 36 37
Wind_Direction
323 327 329 332 334 338 342 342 344 346 345 344 344 347 345 343 344 344 347 354 350 355 344 329 330 341 344 342 348 347 347 349 357 344 253 223 201 221 227 239 211 224 225 219 219 211 236 238 227 216 223 220 208 225
324 328 330 332 334 338 341 342 345 345 345 343 344 345 347 344 344 343 343 357 354 354 0 319 311 326 327 339 344 348 356 353 346 356 293 236 213 220 228 228 227 214 220 224 223 236 239 237 239 223 234 243 238 219
327 328 331 333 335 337 340 342 344 345 345 343 343 346 346 347 343 342 343 355 359 355 5 3 327 334 331 338 349 352 354 15 10 9 358 281 258 234 235 236 236 224 207 209 222 233 235 233 228 230 236 249 255 243
327 328 330 332 334 337 338 340 344 346 345 343 343 345 346 345 343 342 340 351 358 354 353 14 22 14 2 1 360 347 340 358 10 6 7 348 269 238 249 238 237 234 226 220 211 212 209 213 216 212 225 215 214 255
328 329 331 332 333 336 338 340 343 345 345 343 342 343 345 345 339 337 338 345 356 355 349 350 353 357 6 2 357 352 358 7 5 7 8 352 348 276 243 237 247 241 237 236 243 238 227 232 221 217 219 224 236 250
327 329 331 332 332 335 339 340 342 345 344 343 342 342 343 346 345 335 335 341 353 356 357 347 340 337 350 349 345 346 348 350 347 338 334 323 296 308 281 252 242 251 257 248 254 256 255 250 251 238 232 215 220 238
326 328 330 330 332 335 338 339 342 345 343 342 342 340 342 345 345 336 333 334 337 342 351 356 348 336 328 329 326 328 325 325 329 324 321 339 299 278 298 282 260 255 258 261 259 253 256 262 262 256 239 225 217 217
326 327 329 330 333 335 335 338 341 342 343 341 341 340 342 343 343 336 329 321 325 331 330 333 352 358 338 318 305 308 308 311 316 307 301 286 297 285 287 297 290 276 267 265 260 259 257 258 261 263 255 252 242 225
325 326 328 329 332 334 335 337 339 341 342 341 341 340 341 341 341 345 332 320 319 319 323 326 324 334 349 355 342 315 308 309 315 304 285 285 284 290 281 282 284 281 270 257 257 255 255 261 259 261 260 258 247 246
324 324 327 328 331 333 333 336 339 340 340 340 341 340 342 342 345 345 334 319 311 308 315 322 329 330 330 330 344 342 309 308 317 300 290 291 293 295 298 297 293 287 281 273 261 258 257 252 254 256 258 254 247 240
323 323 326 328 330 331 333 337 338 338 338 339 342 344 344 345 347 350 340 324 319 313 312 315 323 327 328 328 334 344 339 316 308 296 292 297 304 306 305 308 312 315 305 290 277 264 252 255 256 256 257 253 247 239
320 322 325 327 329 331 333 336 336 337 338 339 343 345 347 348 351 352 348 338 326 322 315 314 314 317 324 331 333 338 335 324 309 307 298 299 307 315 320 330 348 351 348 346 318 288 262 248 254 256 250 250 243 242
319 321 324 326 328 330 332 334 335 335 336 338 340 344 347 348 354 352 350 342 330 323 321 320 313 311 316 323 331 338 335 336 327 318 318 321 332 338 350 355 3 3 1 1 0 350 314 264 244 249 248 245 248 242
317 320 322 324 327 329 332 333 333 334 335 337 341 342 346 350 352 352 351 346 339 326 318 317 319 319 313 314 320 322 319 327 345 357 359 355 352 4 357 341 345 353 358 4 9 7 1 345 300 267 256 251 250 244
315 318 320 323 326 329 331 331 331 334 334 338 340 341 342 346 349 349 347 344 339 331 323 315 310 310 312 307 306 304 305 306 312 318 322 322 320 321 324 325 329 336 343 343 345 353 8 17 28 340 267 252 243 233
313 315 319 321 325 327 329 330 332 333 333 337 337 337 340 342 343 343 341 339 336 331 325 318 308 302 298 300 300 293 289 290 292 287 286 290 295 298 300 305 310 313 320 326 332 333 332 330 338 41 116 167 179 186
313 314 317 320 324 327 329 329 331 331 332 334 334 335 336 337 337 337 335 333 329 326 322 317 310 304 298 293 291 290 284 281 279 281 281 280 279 281 287 291 295 302 307 312 313 317 318 317 313 307 296 275 228 185
311 313 316 322 325 326 328 329 329 329 331 332 333 333 333 334 334 333 331 330 325 322 319 315 309 306 297 291 287 283 283 283 279 275 273 274 276 278 279 282 285 287 290 293 295 298 299 298 298 300 298 292 281 269
309 313 318 322 325 327 327 328 328 329 330 331 331 331 331 330 330 331 329 326 321 318 317 314 311 307 300 294 289 285 281 279 280 280 279 277 275 274 274 275 277 279 282 284 286 286 285 282 279 280 280 279 278 278
309 315 318 323 326 325 325 326 328 329 329 329 329 329 329 329 330 330 328 324 320 319 316 315 312 309 306 300 293 288 285 283 282 281 280 279 278 279 278 277 277 278 278 278 279 280 279 277 279 280 279 278 278 276
311 314 319 322 324 325 325 326 327 327 327 328 328 329 329 330 330 329 327 323 322 319 318 316 312 310 308 304 300 296 291 288 286 285 284 282 279 277 276 276 276 277 278 277 275 274 273 274 278 280 280 279 276 274
311 316 320 322 323 324 323 323 324 326 327 328 328 329 329 330 330 327 324 323 319 319 318 315 312 311 308 305 301 298 296 294 291 288 285 282 281 280 279 277 276 275 274 274 274 274 272 272 273 275 275 274 275 274
314 319 320 321 321 322 321 323 325 326 327 327 328 329 330 330 328 326 324 321 320 320 318 315 312 310 308 305 302 301 299 296 293 291 291 289 286 282 278 276 275 275 275 274 274 273 271 269 267 266 266 266 267 266
314 318 320 320 321 321 322 324 326 326 326 327 328 329 330 329 327 326 323 322 321 319 316 314 311 308 305 304 303 302 299 296 293 291 291 289 287 285 284 283 279 277 274 272 271 270 270 269 268 267 265 265 264 265
315 319 318 319 319 321 323 325 326 326 326 328 329 328 328 327 326 325 323 322 320 318 316 313 310 306 305 304 302 300 299 298 297 295 290 285 284 283 282 281 279 278 278 277 276 274 271 269 268 266 265 265 265 264
315 316 318 320 321 323 325 325 326 326 328 328 328 327 328 327 326 324 323 322 320 317 315 312 311 310 307 302 301 299 296 293 291 290 288 285 282 280 278 275 275 275 275 273 272 272 272 272 272 271 268 265 263 261
313 317 319 321 323 323 325 326 326 327 326 327 327 328 328 327 327 324 322 320 318 315 313 313 312 310 308 307 306 304 302 297 292 285 281 279 278 275 274 274 273 270 268 268 267 267 266 264 263 262 262 263 262 260
318 320 322 323 324 326 326 327 327 325 326 328 328 329 328 327 326 322 320 319 317 315 314 313 312 312 310 309 308 308 307 305 301 296 290 284 278 274 270 268 266 266 265 265 263 261 261 260 259 259 259 258 259 260
322 323 323 325 326 327 328 327 325 326 328 328 329 328 328 327 323 321 320 318 316 315 314 314 314 314 314 313 311 310 307 303 300 296 292 287 283 277 273 269 265 263 261 260 260 260 259 258 257 257 256 254 253 255
324 325 327 328 329 329 327 327 327 328 329 330 330 329 328 326 323 320 319 317 315 314 314 313 314 314 313 312 311 311 311 310 308 302 295 289 284 280 277 274 271 268 264 260 258 256 255 256 256 254 254 254 253 252
329 331 332 331 330 329 329 329 330 331 332 332 332 330 328 327 324 322 319 319 317 317 318 318 319 320 320 319 318 318 317 316 316 314 309 300 291 284 278 275 273 271 268 265 262 258 254 252 251 252 251 252 252 252
335 334 333 333 333 333 334 333 335 336 337 337 335 334 333 331 329 328 326 323 321 321 322 324 325 325 324 322 321 321 320 317 314 313 311 310 307 300 291 281 274 270 269 266 262 260 258 256 253 251 251 251 252 252
337 338 339 338 338 338 338 339 341 342 342 341 341 341 340 338 336 334 332 332 330 329 328 327 326 327 327 325 322 321 320 318 316 314 311 308 307 306 304 299 290 278 268 263 261 259 257 256 255 253 251 250 250 251
Height
5703 5693 5682 5671 5659 5647 5633 5620 5604 5588 5571 5554 5539 5526 5512 5500 5490 5482 5474 5461 5449 5440 5428 5424 5421 5420 5418 5414 5410 5407 5403 5398 5394 5390 5389 5389 5393 5396 5402 5405 5408 5412 5416 5422 5428 5430 5432 5433 5439 5445 5444 5449 5454 5458
5697 5687 5676 5665 5653 5641 5627 5613 5599 5583 5567 5551 5536 5521 5509 5497 5487 5478 5471 5461 5450 5439 5431 5425 5422 5420 5418 5414 5410 5406 5400 5395 5391 5389 5388 5388 5390 5393 5396 5399 5402 5406 5408 5413 5418 5418 5420 5427 5431 5430 5432 5438 5443 5449
5689 5680 5670 5657 5647 5634 5622 5607 5592 5577 5562 5546 5532 5518 5504 5493 5483 5475 5468 5459 5451 5443 5432 5424 5421 5420 5417 5413 5409 5406 5402 5398 5394 5391 5388 5387 5387 5389 5392 5394 5398 5400 5404 5408 5411 5414 5417 5419 5421 5424 5424 5431 5436 5442
5681 5672 5661 5649 5638 5627 5614 5600 5585 5572 5556 5541 5527 5514 5500 5488 5479 5472 5464 5457 5450 5443 5437 5431 5424 5421 5418 5414 5410 5407 5403 5400 5397 5394 5391 5389 5388 5387 5386 5389 5392 5394 5400 5403 5407 5409 5412 5412 5413 5415 5418 5423 5427 5432
5675 5665 5654 5643 5632 5619 5607 5595 5580 5565 5551 5536 5523 5510 5498 5485 5473 5467 5461 5454 5449 5444 5436 5432 5427 5423 5419 5415 5411 5408 5404 5401 5398 5396 5393 5390 5388 5388 5386 5386 5385 5390 5395 5398 5400 5402 5405 5405 5407 5408 5410 5414 5419 5423
5667 5657 5647 5636 5624 5613 5602 5588 5575 5560 5547 5531 5519 5506 5493 5481 5468 5460 5457 5452 5446 5441 5436 5431 5427 5423 5418 5415 5410 5406 5403 5401 5397 5394 5391 5389 5387 5386 5385 5384 5384 5385 5387 5389 5392 5394 5395 5395 5397 5399 5403 5406 5409 5415
5659 5650 5640 5629 5617 5607 5596 5583 5571 5557 5542 5528 5516 5501 5488 5475 5464 5456 5451 5447 5444 5439 5436 5430 5424 5420 5417 5413 5409 5405 5401 5398 5396 5392 5388 5385 5384 5383 5382 5382 5382 5381 5378 5375 5377 5383 5384 5384 5387 5389 5394 5398 5400 5405
5650 5641 5632 5622 5611 5601 5590 5578 5564 5551 5537 5523 5512 5498 5485 5472 5461 5453 5447 5443 5440 5437 5434 5430 5426 5421 5415 5411 5407 5402 5399 5396 5393 5390 5386 5384 5384 5381 5378 5377 5377 5376 5375 5372 5368 5367 5371 5374 5376 5377 5382 5386 5390 5393
5643 5634 5625 5614 5604 5594 5583 5572 5560 5546 5532 5519 5508 5494 5482 5471 5459 5450 5442 5439 5436 5434 5429 5425 5421 5417 5412 5408 5403 5398 5395 5391 5389 5386 5383 5382 5378 5375 5374 5372 5370 5368 5366 5366 5363 5360 5357 5359 5364 5367 5371 5378 5382 5386
5634 5626 5617 5606 5596 5586 5575 5564 5553 5540 5527 5514 5503 5491 5478 5468 5454 5445 5438 5435 5432 5429 5424 5420 5415 5411 5410 5404 5399 5395 5390 5387 5384 5382 5378 5375 5373 5370 5367 5365 5362 5359 5356 5354 5352 5350 5350 5353 5356 5359 5361 5365 5374 5378
5624 5616 5607 5598 5588 5578 5567 5555 5544 5534 5522 5510 5498 5485 5473 5463 5451 5441 5435 5431 5427 5423 5420 5416 5412 5407 5404 5400 5395 5392 5386 5382 5380 5378 5374 5371 5368 5365 5361 5357 5353 5349 5345 5341 5338 5338 5338 5339 5341 5345 5349 5351 5358 5366
5613 5606 5597 5588 5579 5568 5558 5545 5534 5523 5510 5500 5489 5478 5469 5461 5449 5440 5433 5427 5422 5419 5415 5411 5408 5403 5400 5396 5392 5387 5383 5379 5375 5372 5369 5366 5363 5360 5357 5353 5349 5345 5339 5335 5330 5329 5328 5330 5331 5333 5336 5341 5344 5351
5604 5596 5586 5578 5568 5559 5548 5537 5526 5515 5504 5494 5484 5475 5467 5459 5447 5438 5431 5425 5420 5415 5411 5407 5403 5399 5394 5392 5388 5384 5380 5375 5371 5367 5364 5361 5359 5356 5354 5351 5347 5344 5339 5333 5328 5325 5324 5324 5325 5327 5328 5330 5334 5337
5594 5586 5577 5566 5557 5547 5538 5527 5518 5508 5498 5489 5478 5470 5464 5452 5443 5436 5429 5423 5417 5411 5406 5402 5397 5393 5389 5387 5384 5381 5378 5374 5370 5366 5363 5360 5358 5355 5353 5351 5348 5344 5341 5337 5332 5328 5324 5321 5321 5322 5323 5325 5326 5328
5584 5575 5566 5556 5547 5537 5528 5519 5510 5499 5492 5481 5472 5464 5457 5448 5439 5432 5426 5419 5413 5406 5400 5395 5391 5388 5384 5381 5378 5376 5373 5370 5368 5365 5362 5359 5357 5354 5351 5349 5346 5343 5340 5337 5335 5332 5329 5326 5322 5321 5320 5320 5320 5321
5574 5567 5557 5547 5537 5529 5518 5509 5501 5492 5484 5475 5466 5459 5450 5442 5434 5427 5420 5413 5407 5400 5393 5388 5383 5379 5377 5374 5371 5368 5367 5364 5362 5360 5358 5355 5353 5350 5348 5346 5343 5341 5339 5337 5335 5332 5330 5328 5326 5324 5323 5321 5320 5319
5562 5556 5548 5538 5529 5520 5510 5502 5492 5485 5476 5468 5460 5452 5445 5437 5430 5422 5415 5408 5401 5394 5386 5379 5374 5370 5367 5364 5361 5359 5357 5355 5353 5352 5350 5348 5346 5344 5342 5341 5339 5337 5335 5333 5331 5330 5328 5327 5325 5324 5323 5321 5320 5320
5552 5544 5536 5527 5520 5512 5502 5492 5483 5475 5467 5461 5454 5446 5438 5430 5422 5414 5407 5400 5393 5385 5378 5371 5365 5360 5356 5352 5350 5348 5346 5344 5343 5341 5339 5338 5336 5335 5333 5332 5331 5330 5329 5327 5326 5324 5323 5322 5321 5320 5319 5318 5318 5318
5542 5535 5527 5518 5510 5501 5492 5484 5476 5467 5459 5452 5444 5437 5430 5422 5414 5406 5398 5391 5382 5375 5367 5360 5354 5350 5345 5342 5339 5336 5334 5332 5331 5329 5327 5326 5325 5323 5322 5321 5320 5319 5318 5318 5317 5316 5315 5315 5315 5314 5313 5313 5312 5312
5530 5522 5516 5508 5498 5491 5483 5475 5467 5459 5452 5444 5436 5428 5420 5412 5404 5395 5388 5379 5371 5363 5356 5350 5344 5339 5335 5331 5328 5325 5322 5320 5318 5315 5314 5312 5311 5310 5309 5308 5307 5307 5306 5306 5305 5304 5304 5304 5304 5304 5304 5303 5303 5302
5518 5512 5505 5497 5489 5481 5473 5465 5457 5451 5443 5435 5427 5418 5409 5400 5391 5382 5374 5365 5357 5350 5343 5338 5333 5328 5324 5321 5317 5313 5310 5308 5305 5303 5301 5300 5298 5297 5296 5296 5295 5295 5294 5294 5295 5294 5294 5293 5293 5293 5293 5293 5293 5293
5509 5501 5494 5486 5479 5472 5465 5458 5450 5441 5434 5424 5416 5407 5397 5388 5378 5370 5362 5354 5345 5338 5333 5327 5322 5318 5314 5310 5306 5303 5300 5297 5294 5292 5290 5288 5286 5285 5284 5283 5283 5282 5282 5282 5282 5283 5283 5283 5282 5282 5282 5283 5283 5283
5501 5492 5484 5477 5470 5464 5458 5449 5441 5432 5423 5414 5405 5395 5385 5376 5367 5357 5349 5341 5334 5327 5321 5317 5312 5308 5303 5300 5296 5293 5289 5286 5284 5281 5278 5276 5274 5273 5271 5271 5270 5269 5269 5269 5269 5269 5270 5270 5271 5271 5271 5272 5272 5273
5490 5482 5475 5468 5462 5455 5448 5440 5431 5422 5413 5403 5392 5382 5372 5363 5354 5345 5337 5328 5322 5316 5311 5306 5302 5297 5294 5290 5286 5283 5279 5276 5273 5271 5268 5265 5263 5262 5260 5258 5257 5257 5256 5256 5256 5257 5257 5257 5258 5259 5260 5260 5261 5262
5480 5475 5467 5460 5454 5446 5439 5430 5421 5411 5401 5391 5380 5370 5360 5350 5341 5333 5324 5317 5312 5306 5300 5296 5292 5287 5283 5278 5275 5271 5268 5265 5261 5258 5257 5254 5252 5251 5249 5248 5247 5246 5246 5245 5244 5244 5244 5244 5245 5245 5246 5247 5247 5248
5471 5465 5458 5451 5444 5438 5428 5419 5411 5400 5389 5378 5367 5357 5347 5338 5330 5322 5314 5307 5301 5295 5290 5284 5280 5275 5271 5267 5264 5259 5255 5252 5249 5246 5244 5242 5240 5238 5237 5237 5236 5236 5235 5235 5235 5235 5234 5234 5234 5235 5235 5235 5235 5236
5464 5457 5451 5444 5437 5428 5419 5411 5400 5389 5377 5366 5355 5344 5334 5325 5317 5310 5302 5296 5290 5284 5279 5274 5269 5264 5259 5254 5250 5245 5241 5237 5235 5232 5229 5227 5225 5225 5224 5224 5223 5223 5223 5223 5224 5224 5225 5225 5226 5226 5227 5227 5228 5229
5456 5450 5444 5437 5428 5420 5410 5400 5389 5377 5365 5353 5342 5332 5323 5314 5307 5299 5292 5286 5280 5274 5268 5263 5257 5252 5246 5240 5237 5232 5226 5222 5219 5216 5214 5212 5210 5209 5209 5209 5209 5209 5210 5210 5211 5212 5213 5214 5215 5216 5218 5219 5219 5220
5449 5444 5437 5429 5421 5411 5401 5390 5378 5366 5353 5341 5331 5321 5313 5305 5297 5289 5282 5275 5269 5263 5256 5250 5244 5237 5231 5224 5219 5216 5211 5208 5205 5201 5197 5195 5194 5194 5193 5193 5193 5194 5196 5197 5198 5199 5200 5201 5203 5205 5206 5208 5209 5210
5445 5438 5430 5422 5412 5402 5392 5380 5366 5354 5342 5331 5321 5312 5304 5296 5288 5280 5273 5265 5258 5251 5245 5238 5234 5229 5222 5216 5208 5200 5196 5192 5189 5187 5185 5182 5180 5179 5178 5178 5178 5179 5180 5181 5182 5184 5187 5188 5190 5192 5193 5195 5197 5199
5438 5432 5423 5415 5405 5395 5382 5369 5357 5344 5333 5322 5312 5303 5294 5287 5278 5270 5263 5255 5247 5240 5233 5226 5219 5213 5208 5202 5197 5192 5186 5180 5176 5173 5171 5169 5167 5166 5165 5165 5165 5165 5165 5166 5167 5168 5170 5173 5175 5177 5180 5182 5184 5186
5433 5426 5418 5409 5398 5386 5374 5362 5349 5337 5325 5314 5304 5294 5284 5276 5268 5260 5252 5245 5236 5228 5221 5214 5209 5203 5197 5191 5187 5183 5179 5175 5170 5166 5162 5159 5156 5154 5153 5152 5151 5152 5152 5152 5153 5155 5156 5158 5160 5163 5165 5168 5170 5173
5429 5421 5413 5403 5393 5381 5368 5354 5341 5329 5318 5306 5296 5286 5276 5267 5259 5251 5243 5236 5228 5220 5213 5206 5199 5194 5189 5184 5179 5175 5171 5166 5163 5159 5155 5152 5149 5146 5143 5141 5139 5139 5140 5141 5142 5143 5144 5145 5146 5148 5151 5153 5156 5158